Regional Weather Roundup
Issued by NWS

Home | Current Version | Previous Version | Graphics & Text | Print | Product List | Glossary Off
Versions: 1 2 3 4 5 6 7 8 9 10 11 12 13 14 15 16 17 18 19 20 21 22 23 24 25 26 27 28 29 30 31 32 33 34 35 36 37 38 39 40 41 42 43 44 45 46 47 48 49 50

000
ASUS43 KMKX 300211
RWRWI

WISCONSIN REGIONAL WEATHER ROUNDUP
NATIONAL WEATHER SERVICE MILWAUKEE/SULLIVAN WI
900 PM CDT FRI AUG 29 2014

NOTE: "FAIR" INDICATES FEW OR NO CLOUDS BELOW 12,000 FEET WITH NO
SIGNIFICANT WEATHER AND/OR OBSTRUCTIONS TO VISIBILITY.

WIZ001-002-006>008-014>016-023>028-300300-
NORTHWEST WISCONSIN

CITY           SKY/WX    TMP DP  RH WIND       PRES   REMARKS
SUPERIOR ARPT  CLOUDY    61  61  99 CALM      29.79R
ASHLAND        LGT RAIN  66  65  96 CALM      29.78S VSB 1/2
HAYWARD        RAIN      66  66 100 S5        29.80S FOG
SIREN          DRIZZLE   67  67  97 CALM      29.78S
RICE LAKE      DRIZZLE   64  63  94 NE3       29.79F
LADYSMITH      RAIN      66  65  96 N5        29.83S
EAU CLAIRE     RAIN      68  67  96 S7        29.79R
MENOMONIE      DRIZZLE   68  67  98 SE6       29.77F
NEW RICHMOND   LGT RAIN  66  65  97 CALM      29.79R
OSCEOLA        LGT RAIN  69  69 100 CALM      29.80R
$$

WIZ003>005-009-010-017-018-300300-
NORTH CENTRAL WISCONSIN

CITY           SKY/WX    TMP DP  RH WIND       PRES   REMARKS
WOODRUFF       RAIN      64  63  94 SE3       29.83F
RHINELANDER    LGT RAIN  64  63  96 S3        29.84F
EAGLE RIVER    RAIN      63  63 100 S6        29.84S
LAND O LAKES   RAIN      64  63  95 S3        29.84S
PHILLIPS       CLOUDY    64  63  99 CALM      29.80S
TOMAHAWK       RAIN      64  63  96 E6        29.81F
MEDFORD        CLOUDY    64  63  98 SE6       29.83R
MERRILL        LGT RAIN  66  66 100 E5        29.82F
$$

WIZ029-030-035-036-043>047-300300-
CENTRAL WISCONSIN

CITY           SKY/WX    TMP DP  RH WIND       PRES   REMARKS
WAUSAU         LGT RAIN  66  64  93 N5        29.81F
MOSINEE        CLOUDY    68  64  88 W9        29.84
MARSHFIELD     RAIN      67  65  93 CALM      29.83R FOG
STEVENS POINT  MOCLDY    73  69  87 S3        29.81S
WAUPACA        MOCLDY    76  71  83 S3        29.82R
WAUTOMA        MOCLDY    77  71  81 S6        29.82R
WISC RAPIDS    MOCLDY    76  70  82 W16G22    29.83R
CAMP DOUGLAS   MOCLDY    73  69  85 W8G17     29.82R
$$

WIZ011>013-019>022-031-037>040-048>050-300300-
NORTHEAST WISCONSIN

CITY           SKY/WX    TMP DP  RH WIND       PRES   REMARKS
ANTIGO         CLOUDY    65  64  95 W7        29.87R
STURGEON BAY   CLOUDY    70  66  88 S16       29.84S
GREEN BAY      MOCLDY    73  71  93 S8        29.82S
MANITOWOC      MOCLDY    71  69  93 S16G22    29.85S
APPLETON       MOCLDY    75  70  83 S9        29.83S
CLINTONVILLE   MOCLDY    75  68  78 S7        29.81R
OSHKOSH        PTCLDY    75  71  87 S9        29.82S
$$

WIZ032>034-041-042-053>061-300300-
SOUTHWEST WISCONSIN

CITY           SKY/WX    TMP DP  RH WIND       PRES   REMARKS
LA CROSSE      LGT RAIN  72  68  87 CALM      29.79R
SPARTA         LGT RAIN  67  66  94 CALM      29.83R
VIROQUA        CLOUDY    68  68  99 NW5       29.83R
BOSCOBEL       LGT RAIN  78  65  63 S7        29.78R HX  80
PRAIRIE DU CHI CLOUDY    75  65  69 W3        29.78R
PLATTEVILLE    FAIR      72  70  92 E6        29.81F
$$

WIZ056-057-062-063-064-067-068-300300-
SOUTH CENTRAL WISCONSIN

CITY           SKY/WX    TMP DP  RH WIND       PRES   REMARKS
BARABOO/DELLS  MOCLDY    77  69  77 S8        29.81R
LONE ROCK      TSTM      76  68  76 SE9       29.80R
WATERTOWN      PTCLDY    75  72  89 S6        29.84R
MADISON        MOCLDY    79  70  74 S13       29.83R HX  82
MIDDLETON      FAIR      79  70  73 S8        29.83R HX  82
MONROE         MOCLDY    75  70  83 SE12      29.84R
JANESVILLE     CLEAR     79  70  73 S12       29.85R HX  81
$$

WIZ051-052-058>065-066-070>072-300300-
SOUTHEAST WISCONSIN

CITY           SKY/WX    TMP DP  RH WIND       PRES   REMARKS
MILWAUKEE      PTCLDY    76  71  85 S15       29.87S
WAUKESHA       PTCLDY    73  70  88 SE9       29.88R
MILWAUKEE/TIMM NOT AVBL
RACINE         PTCLDY    75  71  87 S14G23    29.89S
BURLINGTON     PTCLDY    75  70  85 S7        29.87R
KENOSHA        PTCLDY    76  72  87 S10       29.88S
FOND DU LAC    PTCLDY    75  70  84 S8        29.84R
SHEBOYGAN      PTCLDY    73  69  87 S14G23    29.86S
WEST BEND      PTCLDY    73  68  83 SE3       29.86R
JUNEAU         PTCLDY    74  71  89 SE7       29.86R
$$

LSZ147-162-300300-
LAKE SUPERIOR

STATION/POSITION TIME  TEMP    WIND        PRES    WAVE
                       AIR SEA DIR/SP/G            HT/PER
                 (UTC) (F)     (DEG/KT/KT) (MB)    (FT/S)
W MID LAKE BUOY  0150   60 57  260/  4/  4 1008.2R   1
DEVILS ISLAND    0200   60      10/  6/  6 1008.5R
PORT WING        0100   63      30/  5/  6 1008.5
SAXON HARBOR     0100   66        CALM     1008.1R
$$

LMZ867-665-643>646-300300-
LAKE MICHIGAN

STATION/POSITION TIME  TEMP    WIND        PRES    WAVE
                       AIR SEA DIR/SP/G            HT/PER
                 (UTC) (F)     (DEG/KT/KT) (MB)    (FT/S)
N MID LAKE BUOY  0150   69 65  180/ 17/ 21 1009.9F   4/ 6
NORTHPORT PIER   0100   69     160/ 12/ 22 1010.2S
SISTER BAY       0111   70     180/ 23/ 29   N/A
KEWAUNEE LAKESHO 0100   66     180/ 13/ 15 1010.0S
SHEBOYGAN LAKESH 0200   69 63  180/ 16/ 17 1011.0F
ATWATER BUOY     0200   71     170/ 14/ 16 1012.2F
MILWAUKEE LAKESH 0100   72     160/ 14/ 15   N/A
S MID LAKE BUOY  0150   72 69  160/ 14/ 17 1012.0F   2/ 4
KENOSHA   LAKESH 0200   72     170/ 15/ 18 1011.2S
$$

TC  - TEMPERATURE IN CELSIUS
VSB - VISIBILITY IN STATUTE MILES
WCI - WIND CHILL INDEX
HX  - HEAT INDEX



USA.gov is the U.S. government's official web portal to all federal, state and local government web resources and services.